{"data":{"norad_id":66750,"epoch":"2026-09-20T16:05:25.262592Z","epoch_age_seconds":102930,"freshness":"FRESH","line1":"1 66750U 25276CN  26263.67043128  .00002585  00000+0  12149-3 0  9995","line2":"2 66750  97.4148 335.8473 0001584  22.0182 338.1121 15.20480811 44934","mean_motion":15.20480811,"eccentricity":0.0001584,"inclination_deg":97.4148,"raan_deg":335.8473,"arg_perigee_deg":22.0182,"mean_anomaly_deg":338.1121,"bstar":0.00012149,"rev_number":4493,"period_min":94.70688413706,"perigee_km":503.29909705596,"apogee_km":505.47948138439,"semimajor_km":6882.5262892202,"source":"CELESTRAK","updated_at":"2026-09-21T09:00:16.179465Z"}}